Location: Herm
(49.4830°N, 2.4500°W)
Time: 10:42:55
(UTC+00:00)

Envisat - Pass Details

Date: 08 October 2022
Orbit: 763 x 765 km, 98.2° (Epoch: 01 December)

Event Time Altitude Azimuth Distance (km) Brightness Sun altitude
Rises 05:10:16 0° 18° (NNE) 3,246 6.7 -21.7°
Reaches altitude 10° 05:12:40 10° 24° (NNE) 2,315 6.0 -21.3°
Maximum altitude 05:17:37 49° 99° (E) 980 3.9 -20.5°
Drops below altitude 10° 05:22:32 10° 174° (S) 2,297 5.4 -19.7°
Sets 05:24:53 0° 180° (S) 3,218 6.1 -19.4°
